TimeEST,TemperatureF,Dew PointF,Humidity,Sea Level PressureIn,VisibilityMPH,Wind Direction,Wind SpeedMPH,Gust SpeedMPH,PrecipitationIn,Events,Conditions,WindDirDegrees,DateUTC
12:53 AM,41.0,30.0,65,30.14,10.0,NW,6.9,-,N/A,,Clear,320,2012-12-05 05:53:00
1:53 AM,39.9,28.9,65,30.17,10.0,NW,10.4,-,N/A,,Clear,310,2012-12-05 06:53:00
2:53 AM,37.9,28.0,68,30.19,10.0,NW,13.8,18.4,N/A,,Clear,320,2012-12-05 07:53:00
3:53 AM,37.0,28.0,70,30.22,10.0,NW,5.8,-,N/A,,Clear,310,2012-12-05 08:53:00
4:38 AM,35.6,28.4,75,30.22,10.0,NW,4.6,-,N/A,,Mostly Cloudy,320,2012-12-05 09:38:00
4:53 AM,36.0,27.0,70,30.25,10.0,NW,10.4,-,N/A,,Overcast,320,2012-12-05 09:53:00
5:28 AM,33.8,23.0,65,30.26,10.0,NNW,10.4,-,N/A,,Mostly Cloudy,330,2012-12-05 10:28:00
5:53 AM,33.1,21.9,64,30.28,10.0,NNW,9.2,17.3,N/A,,Partly Cloudy,340,2012-12-05 10:53:00
6:53 AM,30.9,18.0,59,30.32,10.0,NNW,8.1,17.3,N/A,,Clear,340,2012-12-05 11:53:00
7:53 AM,30.0,18.0,61,30.35,10.0,NW,8.1,-,N/A,,Clear,320,2012-12-05 12:53:00
9:53 AM,33.1,18.0,54,30.38,10.0,NNW,11.5,18.4,N/A,,Clear,340,2012-12-05 14:53:00
10:53 AM,35.1,19.0,52,30.40,10.0,NNW,12.7,19.6,N/A,,Clear,330,2012-12-05 15:53:00
11:53 AM,36.0,18.0,48,30.39,10.0,NNW,13.8,19.6,N/A,,Clear,330,2012-12-05 16:53:00
12:53 PM,37.0,19.0,48,30.39,10.0,North,8.1,-,N/A,,Clear,350,2012-12-05 17:53:00
1:53 PM,37.0,19.9,50,30.38,10.0,NNE,10.4,-,N/A,,Clear,20,2012-12-05 18:53:00
2:53 PM,37.9,21.9,53,30.39,10.0,NNE,6.9,-,N/A,,Scattered Clouds,30,2012-12-05 19:53:00
3:53 PM,35.1,21.0,57,30.41,10.0,ENE,8.1,-,N/A,,Partly Cloudy,70,2012-12-05 20:53:00
4:53 PM,34.0,21.0,59,30.42,10.0,NNE,6.9,-,N/A,,Clear,30,2012-12-05 21:53:00
5:53 PM,30.9,21.9,69,30.41,10.0,ENE,5.8,-,N/A,,Clear,60,2012-12-05 22:53:00
6:53 PM,30.9,21.0,67,30.41,10.0,ENE,4.6,-,N/A,,Clear,60,2012-12-05 23:53:00
7:53 PM,30.0,21.0,69,30.42,10.0,NNE,3.5,-,N/A,,Clear,30,2012-12-06 00:53:00
8:53 PM,28.9,21.0,72,30.41,10.0,Calm,Calm,-,N/A,,Clear,0,2012-12-06 01:53:00
9:53 PM,28.0,21.0,75,30.41,10.0,Calm,Calm,-,N/A,,Clear,0,2012-12-06 02:53:00
10:53 PM,28.9,21.9,75,30.41,10.0,Calm,Calm,-,N/A,,Clear,0,2012-12-06 03:53:00
11:53 PM,28.9,21.9,75,30.40,10.0,Calm,Calm,-,N/A,,Clear,0,2012-12-06 04:53:00